Tracking 18852 objects as of 24-Nov-2017
HD Live streaming from Space Station
objects crossing your sky now

COSMOS 1417

Track COSMOS 1417 now!
10-day predictions
COSMOS 1417 is classified as:


NORAD ID: 13617
Int'l Code: 1982-102A
Perigee: 961.8 km
Apogee: 1,013.4 km
Inclination: 83.0 °
Period: 104.7 minutes
Semi major axis: 7358 km
RCS: 2.4834 m2 (large)
Launch date: October 19, 1982
Source: Commonwealth of Independent States (former USSR) (CIS)
Launch site: PLESETSK MISSILE AND SPACE COMPLEX (PKMTR)
aabbcc
Your satellite tracking list
Your tracking list is empty




NASA's NSSDC Master Catalog

Two Line Element Set (TLE):
1 13617U 82102A   17328.22049334  .00000046  00000-0  31844-4 0  9993
2 13617  82.9710  48.8097 0035109 158.3587 257.7773 13.75341065761386
Source of the keplerian elements: AFSPC